Regional Weather Roundup
Issued by NWS

Home | Current Version | Previous Version | Text Only | Print | Product List | Glossary On
Versions: 1 2 3 4 5 6 7 8 9 10 11 12 13 14 15 16 17 18 19 20 21 22 23 24 25 26 27 28 29 30 31 32 33 34 35 36 37 38 39 40 41 42 43 44 45 46 47 48 49 50
000
ASUS43 KTOP 080608
RWRKS

WEATHER ROUNDUP FOR KANSAS
NATIONAL WEATHER SERVICE GOODLAND KS
100 AM CDT WED JUL 08 2015

NOTE:  "FAIR" INDICATES FEW OR NO CLOUDS BELOW 12,000 FEET WITH NO
SIGNIFICANT WEATHER AND/OR OBSTRUCTIONS TO VISIBILITY.

KSZ001>006-013>018-027>032-041>047-080700-
NORTHWEST KANSAS

CITY           SKY/WX    TMP DP  RH WIND       PRES   REMARKS
GOODLAND       MOCLDY    61  46  57 SE9       30.10F
6HR MIN TEMP:  61; 6HR MAX TEMP:  74;

HAYS           CLEAR     57  45  62 CALM      30.09S
HILL CITY      MOCLDY    59  49  69 E5        30.09F
6HR MIN TEMP:  58; 6HR MAX TEMP:  77;

RUSSELL        CLEAR     57  50  77 SE7       30.08S
6HR MIN TEMP:  57; 6HR MAX TEMP:  75;

$$

KSZ061>065-074>080-084>089-080700-
SOUTHWEST KANSAS

CITY           SKY/WX    TMP DP  RH WIND       PRES   REMARKS
DODGE CITY     CLEAR     54  47  77 S5        30.08F
6HR MIN TEMP:  54; 6HR MAX TEMP:  73;

ELKHART          N/A     58  45  62 SE7         N/A
GARDEN CITY    PTCLDY    58  48  69 SE6       30.08F
6HR MIN TEMP:  58; 6HR MAX TEMP:  74;

GREAT BEND     CLEAR     59  48  67 SE5       30.09S
LIBERAL        MOCLDY    57  45  62 S3        30.11R
PRATT          CLOUDY    61  50  67 CALM      30.08F
$$

KSZ066>073-081>083-090>101-080700-
SOUTHEAST KANSAS

CITY           SKY/WX    TMP DP  RH WIND       PRES   REMARKS
CHANUTE        LGT RAIN  64  63  96 NE6       30.03S FOG
6HR MIN TEMP:  63; 6HR MAX TEMP:  64; 6HR PCP:  0.06;

COFFEYVILLE    LGT RAIN  65  64  97 NE6       30.00F FOG
6HR MIN TEMP:  65; 6HR MAX TEMP:  66; 6HR PCP:  0.08;

HUTCHINSON     MOCLDY    61  56  83 CALM      30.07F
6HR MIN TEMP:  60; 6HR MAX TEMP:  67; 6HR PCP: TRACE;

MEDICINE LODGE   N/A     62  58  86 NE8       30.05F
NEWTON         CLOUDY    61  55  82 NE3       30.08F
PARSONS        LGT RAIN  65  64  97 VRB3      30.03F FOG
6HR MIN TEMP:  65; 6HR MAX TEMP:  66; 6HR PCP:  0.06;

WICHITA INTL   LGT RAIN  63  60  90 NE10      30.04F FOG
6HR MIN TEMP:  63; 6HR MAX TEMP:  67; 6HR PCP:  0.04;

WICHITA JABRA  CLOUDY    62  60  93 NE8       30.05F FOG
6HR MIN TEMP:  62; 6HR MAX TEMP:  66; 6HR PCP:  0.02;

WICHITA MCCONL LGT RAIN  62  61  96 NE8       30.04F FOG
WINFIELD       CLOUDY    63  61  93 NE8       30.03F FOG
6HR MIN TEMP:  63; 6HR MAX TEMP:  64; 6HR PCP:  0.10;

$$

KSZ007>012-019>026-033>040-048>060-102>105-080700-
NORTHEAST KANSAS

CITY           SKY/WX    TMP DP  RH WIND       PRES   REMARKS
CONCORDIA      CLEAR     59  52  77 CALM      30.08F
6HR MIN TEMP:  58; 6HR MAX TEMP:  72;

EMPORIA        CLOUDY    63  61  93 NE6       30.05F
6HR MIN TEMP:  62; 6HR MAX TEMP:  68; 6HR PCP:  0.22;

LAWRENCE       LGT RAIN  66  63  90 CALM      30.07S
6HR MIN TEMP:  65; 6HR MAX TEMP:  69; 6HR PCP:  0.04;

MANHATTAN      CLOUDY    63  60  90 CALM      30.06S
6HR MIN TEMP:  62; 6HR MAX TEMP:  71;

MARYSVILLE     PTCLDY    59  55  88 CALM      30.08S
OLATHE IND     LGT RAIN  64  62  93 E6        30.07F FOG
6HR MIN TEMP:  64; 6HR MAX TEMP:  66; 6HR PCP:  0.09;

OLATHE EXE     LGT RAIN  63  62  97 NE6       30.06S FOG
6HR MIN TEMP:  63; 6HR MAX TEMP:  68; 6HR PCP:  0.13;

SALINA         PTCLDY    63  54  72 CALM      30.07F
6HR MIN TEMP:  63; 6HR MAX TEMP:  74;

TOPEKA BILLARD CLOUDY    66  62  87 CALM      30.06F
6HR MIN TEMP:  66; 6HR MAX TEMP:  70;

TOPEKA FORBES  CLOUDY    66  61  84 E5        30.06F
6HR MIN TEMP:  66; 6HR MAX TEMP:  70; 6HR PCP: TRACE;

$$



USA.gov is the U.S. government's official web portal to all federal, state and local government web resources and services.